Погода в Монпелье

Франция     43°37′36″N   3°52′06″E
темп.,
°C
ветер,
м/с
пор.,
м/с
влажн.,
%
обл.,
%
осадки,
мм/ч
давл.,
гПа
погр.,
м
26 февраля, пт
пт2601:00+7ссз11830 0.0 103222
04:00+7сз117725 0.0 103222
07:00+6сз117031 0.0 103122
10:00+12сз11538 0.0 1031146
13:00+17св013838 0.0 1030619
16:00+17юз124495 0.0 1027609
19:00+12сз247456 0.0 1028120
22:00+10сз12810 0.0 102929
27 февраля, сб
сб2701:00+9зсз22890 0.0 102924
04:00+8ссз238614 0.0 1027116
07:00+6зсз33747 0.0 102798
10:00+13ссз512580 0.0 10271536
13:00+16ссв595121 0.0 10261676
16:00+15св455515 0.0 10251323
19:00+10св386537 0.0 1026336
22:00+9сз2270100 0.0 102756
28 февраля, вс
вс2801:00+8ссв2276100 0.3 102778
04:00+8св2275100 0.1 102768
07:00+8ссв2474100 0.1 1027133
10:00+10св356766 0.0 1027244
13:00+14вюв476237 0.0 10261291
16:00+14юв356299 0.0 10251272
19:00+9ююв127599 0.0 102650
22:00+8ссз118399 0.0 102741
1 марта, пн
пн101:00+7ссв019150 0.0 102841
04:00+7с229388 0.0 102726
07:00+6ссв129282 0.0 102727
10:00+11в37730 0.0 1028845
13:00+13юв57595 0.0 10271197
16:00+12юв465525 0.0 1026853
19:00+8вюв117812 0.0 102853
22:00+7с128544 0.0 103041
2 марта, вт
вт201:00+6с228446 0.0 103035
04:00+5ссв23840 0.0 102942
07:00+5ссв23801 0.0 103045
10:00+10св24649 0.0 1031367
13:00+13вюв345847 0.0 1031948
16:00+13юв3460100 0.0 1030793
19:00+8всв1183100 0.0 103237
22:00+7ссз1283100 0.0 103425